Wausau, WI

1:45 PM CST on February 26, 2017 (GMT -0600)
Wausau Downtown

Weather History for KAUW - September, 2013

Change the Weather History Date:

Monday, September 2, 2013

  Actual Average Record
Temperature  
Mean Temperature 58 °F 64 °F  
Max Temperature 64 °F 74 °F 95 °F (1953)
Min Temperature 51 °F 54 °F 35 °F (1946)
Degree Days  
Heating Degree Days 7 3  
Month to date heating degree days 7 6  
Since 1 July heating degree days 63 72  
Cooling Degree Days 0 2  
Month to date cooling degree days 6 4  
Year to date cooling degree days 456 379  
Growing Degree Days 8 (Base 50)    
Moisture  
Dew Point 51 °F    
Average Humidity 75    
Maximum Humidity 89    
Minimum Humidity 60    
Precipitation  
Precipitation T in 0.13 in 3.60 in (1963)
Month to date precipitation 0.51 0.26  
Year to date precipitation 28.14 22.47  
Snow  
Snow 0.00 in 0.00 in 0.00 in ()
Month to date snowfall 0.0 0.0  
Since 1 July snowfall 0.0 0.0  
Snow Depth 0.00 in    
Sea Level Pressure  
Sea Level Pressure 29.98 in    
Wind  
Wind Speed 7 mph (NNW)    
Max Wind Speed 15 mph    
Max Gust Speed 22 mph    
Visibility 10 miles    
Events      
T = Trace of Precipitation, MM = Missing Value Source: NWS Daily Summary

Daily Weather History Graph

Daily Weather History Graph

Search for Another Location

Airport or City:

Trip Planner

Search our weather history database for the weather conditions in past years. The results will help you decide how hot, cold, wet, or windy it might be!

Date:

Astronomy

Sep. 02, 2013 Rise Set
Actual Time 6:22 AM CDT 7:33 PM CDT
Civil Twilight 5:51 AM CDT 8:03 PM CDT
Nautical Twilight 5:15 AM CDT 8:39 PM CDT
Astronomical Twilight 4:37 AM CDT 9:17 PM CDT
Moon 3:34 AM CDT (9/2) 5:49 PM CDT (9/2)
Length of Visible Light 14h 11m
Length of Day
13h 11m
Waning Crescent, 8% of the Moon is Illuminated
Sep 2
Waning Crescent
Sep 5
New
Sep 12
First Quarter
Sep 19
Full
Sep 26
Last Quarter

Hourly Weather History & Observations

Time (CDT) Temp. Dew Point Humidity Pressure Visibility Wind Dir Wind Speed Gust Speed Precip Events Conditions
12:54 AM 63.0 °F 55.9 °F 78% 29.88 in 10.0 mi NNW 10.4 mph - N/A   Mostly Cloudy
1:54 AM 62.1 °F 55.0 °F 78% 29.90 in 10.0 mi NNW 10.4 mph - N/A   Mostly Cloudy
2:16 AM 60.8 °F 55.4 °F 82% 29.90 in 10.0 mi NNW 13.8 mph 21.9 mph N/A   Mostly Cloudy
2:54 AM 60.1 °F 54.0 °F 80% 29.90 in 10.0 mi NNW 10.4 mph - N/A   Overcast
3:29 AM 59.0 °F 53.6 °F 82% 29.91 in 10.0 mi NNW 11.5 mph 20.7 mph N/A   Overcast
3:54 AM 59.0 °F 53.1 °F 81% 29.92 in 10.0 mi NNW 9.2 mph 19.6 mph N/A   Overcast
4:54 AM 57.9 °F 53.1 °F 84% 29.92 in 10.0 mi NNW 8.1 mph - N/A   Overcast
5:13 AM 57.2 °F 53.6 °F 88% 29.92 in 10.0 mi NNW 9.2 mph - N/A   Mostly Cloudy
5:33 AM 57.2 °F 51.8 °F 82% 29.93 in 10.0 mi NNW 6.9 mph - N/A   Mostly Cloudy
5:54 AM 57.0 °F 52.0 °F 83% 29.94 in 10.0 mi NNW 6.9 mph - N/A   Mostly Cloudy
6:51 AM 55.4 °F 51.8 °F 88% 29.95 in 10.0 mi North 10.4 mph 18.4 mph N/A   Scattered Clouds
6:54 AM 55.9 °F 50.0 °F 80% 29.96 in 10.0 mi North 12.7 mph 18.4 mph N/A   Partly Cloudy
7:54 AM 55.9 °F 50.0 °F 80% 29.98 in 10.0 mi North 9.2 mph 18.4 mph N/A   Mostly Cloudy
8:29 AM 55.4 °F 48.2 °F 77% 29.98 in 10.0 mi NNW 9.2 mph - N/A   Overcast
8:54 AM 55.0 °F 50.0 °F 83% 30.00 in 9.0 mi North 6.9 mph - N/A   Overcast
9:30 AM 55.4 °F 48.2 °F 77% 30.00 in 10.0 mi NNW 10.4 mph 16.1 mph 0.00 in   Overcast
9:54 AM 57.0 °F 48.0 °F 72% 30.01 in 10.0 mi North 11.5 mph 17.3 mph 0.00 in   Overcast
10:54 AM 57.9 °F 48.9 °F 72% 30.03 in 10.0 mi NNW 11.5 mph - N/A   Overcast
11:54 AM 59.0 °F 48.0 °F 67% 30.04 in 10.0 mi NNW 9.2 mph 18.4 mph N/A   Overcast
12:54 PM 60.1 °F 48.9 °F 67% 30.03 in 10.0 mi North 5.8 mph - N/A   Overcast
1:54 PM 60.1 °F 48.9 °F 67% 30.03 in 10.0 mi NNW 8.1 mph - N/A   Overcast
2:54 PM 62.1 °F 48.9 °F 62% 30.02 in 10.0 mi Variable 5.8 mph - N/A   Overcast
3:29 PM 64.4 °F 50.0 °F 59% 30.00 in 10.0 mi NW 5.8 mph - N/A   Overcast
3:54 PM 63.0 °F 50.0 °F 63% 30.01 in 10.0 mi NNW 6.9 mph - N/A   Overcast
4:54 PM 63.0 °F 50.0 °F 63% 30.01 in 10.0 mi NNW 8.1 mph - N/A   Overcast
5:54 PM 62.1 °F 48.9 °F 62% 30.02 in 10.0 mi NNW 5.8 mph - N/A   Overcast
6:54 PM 61.0 °F 48.9 °F 64% 30.03 in 10.0 mi NNW 8.1 mph - N/A   Mostly Cloudy
7:54 PM 57.0 °F 48.9 °F 74% 30.04 in 10.0 mi North 3.5 mph - N/A   Clear
8:54 PM 55.9 °F 48.9 °F 77% 30.05 in 10.0 mi North 5.8 mph - N/A   Clear
9:54 PM 54.0 °F 48.0 °F 80% 30.05 in 10.0 mi NNW 3.5 mph - N/A   Clear
10:54 PM 53.1 °F 48.0 °F 83% 30.06 in 10.0 mi North 3.5 mph - N/A   Clear
11:54 PM 52.0 °F 48.0 °F 86% 30.05 in 10.0 mi North 3.5 mph - N/A   Clear